GW5950 Weather Reports


time (UTC)temp
F
wind
direction
speed
knots
gust
knots
rain 1hr
in
rain 24hr
in
rain mn
in
humidity
%
barometer
mb
20260507151420 58 275 5.2 17.4 0.00 0.04 0.04 56 1006.8
20260507150917 59 190 3.5 7.8 0.00 0.04 0.04 58 1006.6
20260507150413 59 303 3.5 8.7 0.00 0.04 0.04 59 1006.8
20260507145910 59 286 4.3 7.0 0.00 0.04 0.04 57 1006.8
20260507145406 58 249 3.5 7.0 0.00 0.04 0.04 57 1006.7
20260507144903 57 0 1.7 6.1 0.00 0.04 0.04 60 1006.9
20260507144400 57 312 4.3 14.8 0.00 0.04 0.04 62 1006.9
20260507143857 58 292 3.5 12.2 0.00 0.04 0.04 60 1007.1
20260507143354 58 282 7.8 7.8 0.00 0.04 0.04 63 1007.0
20260507142851 57 219 3.5 7.8 0.00 0.04 0.04 67 1007.0
20260507142347 56 272 4.3 7.0 0.00 0.04 0.04 68 1007.1
20260507141843 57 259 2.6 8.7 0.00 0.04 0.04 67 1007.1
20260507141340 57 43 1.7 7.0 0.00 0.04 0.04 66 1007.1
20260507140837 61 79 1.7 3.5 0.00 0.04 0.04 64 1006.9
20260507140333 58 82 1.7 7.0 0.00 0.04 0.04 66 1007.2
20260507135831 57 28 1.7 1.7 0.00 0.04 0.04 68 1007.0
20260507135328 57 190 2.6 7.8 0.00 0.04 0.04 66 1007.1
20260507134825 57 73 1.7 4.3 0.00 0.04 0.04 68 1006.9
20260507134321 56 307 4.3 7.0 0.00 0.04 0.04 68 1006.9
20260507133817 58 51 0.9 6.1 0.00 0.04 0.04 68 1006.9
20260507133313 57 64 1.7 3.5 0.00 0.04 0.04 68 1006.9
20260507132812 57 284 0.9 4.3 0.00 0.04 0.04 69 1006.8
20260507132308 56 308 3.5 5.2 0.00 0.04 0.04 69 1007.0
20260507131805 55 288 0.0 7.8 0.00 0.04 0.04 71 1007.0
20260507131302 55 272 4.3 8.7 0.00 0.04 0.04 69 1007.4
20260507130758 56 34 0.9 4.3 0.00 0.04 0.04 70 1007.3
20260507130256 57 324 2.6 5.2 0.00 0.04 0.04 69 1007.1
20260507125755 56 58 0.0 7.8 0.00 0.04 0.04 72 1007.1
20260507125252 56 353 0.9 3.5 0.00 0.04 0.04 76 1007.1
20260507124749 54 288 4.3 5.2 0.00 0.04 0.04 74 1007.3
20260507124245 54 315 1.7 8.7 0.00 0.04 0.04 75 1007.5
20260507123744 56 254 1.7 3.5 0.00 0.04 0.04 77 1007.2
20260507123241 54 359 0.9 4.3 0.00 0.04 0.04 78 1007.3
20260507122736 53 49 4.3 11.3 0.00 0.04 0.04 81 1007.4
20260507122232 53 261 1.7 2.6 0.00 0.04 0.04 82 1007.2
20260507121728 53 102 1.7 3.5 0.00 0.04 0.04 84 1007.3
20260507121224 51 205 1.7 6.1 0.00 0.04 0.04 86 1007.6
20260507120720 51 148 0.0 4.3 0.00 0.04 0.04 87 1007.4
20260507120218 52 87 0.9 1.7 0.00 0.04 0.04 89 1007.3
20260507115713 50 107 0.0 1.7 0.00 0.04 0.04 92 1007.4
20260507115209 50 299 0.0 3.5 0.00 0.04 0.04 92 1007.3
20260507114705 50 80 0.0 1.7 0.00 0.04 0.04 94 1007.4
20260507114203 49 130 0.0 0.0 0.00 0.04 0.04 95 1007.5
20260507113700 49 306 0.0 0.0 0.00 0.04 0.04 96 1007.5
20260507113157 49 109 0.9 1.7 0.00 0.04 0.04 97 1007.0
20260507112654 49 53 0.9 1.7 0.00 0.04 0.04 97 1007.1
20260507112151 48 59 0.9 0.9 0.00 0.04 0.04 97 1007.5
20260507111648 48 59 0.9 0.9 0.00 0.04 0.04 98 1007.3
20260507111145 49 159 0.0 0.9 0.00 0.04 0.04 98 1007.3
20260507110641 48 130 0.0 1.7 0.00 0.04 0.04 98 1007.1
20260507110138 48 135 0.0 0.9 0.00 0.04 0.04 98 1007.0
20260507105635 48 73 1.7 1.7 0.00 0.04 0.04 98 1006.9
20260507105131 48 95 0.9 1.7 0.00 0.04 0.04 98 1007.4
20260507104628 48 129 1.7 1.7 0.00 0.04 0.04 98 1007.0
20260507104125 48 109 0.9 1.7 0.00 0.04 0.04 98 1007.2
20260507103621 48 99 1.7 1.7 0.00 0.04 0.04 98 1007.2
20260507103118 48 89 0.0 1.7 0.00 0.04 0.04 98 1007.0
20260507102614 47 166 0.0 0.9 0.02 0.04 0.04 98 1006.8
20260507102110 48 218 0.0 1.7 0.02 0.04 0.04 98 1006.6
20260507101606 48 88 0.0 1.7 0.00 0.04 0.04 97 1006.5
20260507101102 47 89 0.0 0.0 0.00 0.04 0.04 97 1006.3
20260507100559 47 94 0.0 1.7 0.00 0.04 0.04 97 1006.3
20260507100058 47 83 1.7 1.7 0.00 0.04 0.04 97 1006.2
20260507095555 47 111 0.0 1.7 0.00 0.04 0.04 97 1006.5
20260507095052 48 235 0.0 1.7 0.00 0.04 0.04 97 1006.7
20260507094548 47 114 0.9 1.7 0.00 0.04 0.04 96 1006.3
20260507094045 47 72 1.7 1.7 0.00 0.04 0.04 97 1006.3
20260507093543 48 303 0.0 1.7 0.02 0.04 0.04 96 1006.5
20260507093041 48 271 0.9 2.6 0.02 0.04 0.04 96 1006.5
20260507092537 48 89 0.9 0.9 0.02 0.03 0.03 96 1006.6
20260507092034 48 70 2.6 2.6 0.02 0.03 0.03 96 1006.6
20260507091531 48 42 0.0 1.7 0.02 0.03 0.03 96 1006.6
20260507091027 48 72 1.7 1.7 0.00 0.02 0.02 96 1006.5
20260507090523 48 99 0.9 2.6 0.00 0.02 0.02 96 1006.6
20260507090020 48 324 0.0 1.7 0.02 0.02 0.02 95 1006.9
20260507085517 48 32 0.0 1.7 0.02 0.02 0.02 95 1006.9
20260507085014 48 81 0.0 0.9 0.00 0.02 0.02 95 1007.1
20260507084510 48 89 0.0 1.7 0.00 0.02 0.02 94 1007.1
20260507084007 48 156 0.0 0.9 0.00 0.02 0.02 94 1006.9
20260507083503 48 203 0.0 1.7 0.00 0.02 0.02 94 1006.7
20260507083000 48 126 0.0 1.7 0.00 0.02 0.02 94 1006.8
20260507082457 48 11 0.0 0.9 0.00 0.02 0.02 94 1006.8
20260507081953 48 167 0.0 1.7 0.00 0.02 0.02 94 1006.6
20260507081449 48 157 0.9 2.6 0.00 0.02 0.02 94 1006.5
20260507080946 49 48 0.9 1.7 0.00 0.02 0.02 94 1006.5
20260507080442 49 76 0.0 2.6 0.00 0.02 0.02 93 1006.3
20260507075937 49 79 0.0 1.7 0.00 0.02 0.02 93 1006.5
20260507075434 49 67 2.6 2.6 0.02 0.02 0.02 94 1006.6
20260507074931 49 72 0.9 3.5 0.05 0.02 0.02 93 1006.7
20260507074428 50 81 0.0 2.6 0.07 0.02 0.02 92 1006.6
20260507073926 50 99 1.7 3.5 0.07 0.01 0.01 90 1006.3
20260507073422 51 68 1.7 3.5 0.00 0.00 0.00 88 1006.2
20260507072919 51 313 0.9 4.3 0.00 0.00 0.00 86 1006.7
20260507072416 51 289 3.5 3.5 0.00 0.00 0.00 88 1006.3
20260507071914 51 299 3.5 3.5 0.00 0.00 0.00 87 1005.8
20260507071410 51 323 0.0 2.6 0.00 0.00 0.00 88 1005.9
20260507070901 52 291 0.9 5.2 0.00 0.00 0.00 87 1005.9
20260507070359 52 334 1.7 3.5 0.00 0.00 0.00 88 1005.8
20260507065856 52 300 1.7 3.5 0.00 0.00 0.00 88 1005.9
20260507065352 52 141 0.0 2.6 0.00 0.00 0.00 89 1005.6
20260507064849 52 245 0.0 2.6 0.00 0.00 0.00 89 1005.8
20260507064348 52 305 5.2 5.2 0.00 0.00 0.00 89 1005.7
20260507063845 52 279 0.9 2.6 0.00 0.00 0.00 89 1005.6
20260507063342 52 307 5.2 5.2 0.00 0.00 0.00 89 1005.7
20260507062839 52 210 0.0 2.6 0.00 0.00 0.00 90 1005.8
20260507062336 53 302 1.7 6.1 0.00 0.00 0.00 89 1005.9
20260507061834 53 43 0.9 3.5 0.00 0.00 0.00 90 1005.6
20260507061331 53 283 3.5 3.5 0.00 0.00 0.00 90 1005.7
20260507060830 53 84 0.9 2.6 0.00 0.00 0.00 89 1005.8
20260507060326 53 281 1.7 2.6 0.00 0.00 0.00 89 1005.8
20260507055823 53 55 0.0 1.7 0.00 0.00 0.00 90 1005.8
20260507055318 54 337 1.7 7.0 0.00 0.00 0.00 90 1005.8
20260507054815 54 292 0.9 1.7 0.00 0.00 0.00 91 1005.8
20260507054311 54 313 1.7 2.6 0.00 0.00 0.00 91 1005.9
20260507053808 55 288 1.7 2.6 0.00 0.00 0.00 92 1006.0
20260507053306 55 327 1.7 7.0 0.00 0.00 0.00 92 1006.0
20260507052805 55 53 0.0 2.6 0.00 0.00 0.00 94 1006.2
20260507052301 55 269 0.9 3.5 0.00 0.00 0.00 94 1006.1
20260507051759 55 103 0.0 2.6 0.00 0.00 0.00 94 1006.1
20260507051256 55 14 0.0 3.5 0.00 0.00 0.00 93 1006.1
20260507050752 55 282 0.0 2.6 0.00 0.00 0.00 93 1005.9
20260507050248 56 108 0.0 0.9 0.00 0.00 0.00 94 1005.9
20260507045745 56 306 3.5 3.5 0.00 0.00 0.00 94 1005.9
20260507045241 56 71 0.0 1.7 0.00 0.00 0.00 94 1006.0
20260507044739 56 322 0.9 1.7 0.00 0.00 0.00 94 1006.2
20260507044235 56 283 0.0 1.7 0.00 0.00 0.00 94 1006.0
20260507043731 56 57 1.7 3.5 0.00 0.00 0.00 94 1006.0
20260507043229 57 29 0.0 2.6 0.00 0.00 0.00 93 1005.8
20260507042725 57 282 1.7 3.5 0.00 0.00 0.00 93 1005.8
20260507042225 57 255 5.2 8.7 0.00 0.00 0.00 93 1005.8
20260507041723 57 292 1.7 4.3 0.00 0.00 0.00 94 1006.0
20260507041220 57 303 1.7 4.3 0.00 0.00 0.00 95 1005.8
20260507040717 57 93 1.7 2.6 0.00 0.00 0.00 95 1006.0
20260507040213 58 44 0.9 5.2 0.00 0.11 0.11 95 1005.7
20260507035709 58 276 2.6 3.5 0.00 0.11 0.11 96 1005.9
20260507035205 58 39 0.9 3.5 0.00 0.11 0.11 96 1005.8
20260507034702 58 250 1.7 2.6 0.00 0.11 0.11 97 1006.0
20260507034159 58 289 1.7 2.6 0.00 0.11 0.11 98 1005.8
20260507033658 58 191 1.7 2.6 0.00 0.11 0.11 99 1005.4
20260507033154 58 237 1.7 1.7 0.00 0.11 0.11 99 1005.5
20260507032652 59 256 1.7 2.6 0.00 0.11 0.11 99 1005.4
20260507032147 59 344 0.0 4.3 0.00 0.11 0.11 99 1005.2
20260507031645 59 208 3.5 5.2 0.00 0.11 0.11 99 1005.5
20260507031141 59 278 3.5 4.3 0.02 0.11 0.11 99 1005.4
20260507030638 59 266 1.7 7.8 0.02 0.11 0.11 99 1005.1
20260507030136 59 84 1.7 5.2 0.02 0.11 0.11 99 1005.2
20260507025633 59 254 0.9 11.3 0.00 0.11 0.11 98 1005.0
20260507025130 59 254 1.7 2.6 0.00 0.11 0.11 98 1005.1
20260507024628 59 229 1.7 2.6 0.00 0.11 0.11 98 1004.8
20260507024125 59 193 0.0 2.6 0.00 0.11 0.11 98 1005.1
20260507023620 59 193 0.0 2.6 0.00 0.11 0.11 98 1005.1
20260507023118 59 223 0.0 2.6 0.00 0.11 0.11 98 1005.0
20260507022614 59 180 1.7 4.3 0.00 0.11 0.11 98 1005.1
20260507022110 59 198 0.9 2.6 0.00 0.11 0.11 98 1005.1
20260507021606 59 243 1.7 2.6 0.00 0.11 0.11 98 1005.1
20260507021102 59 267 1.7 2.6 0.00 0.11 0.11 98 1004.9
20260507020601 59 115 0.0 1.7 0.00 0.11 0.11 98 1004.7
20260507020056 59 104 1.7 2.6 0.00 0.11 0.11 98 1005.0
20260507015555 59 260 1.7 5.2 0.00 0.11 0.11 98 1005.0
20260507015052 59 212 1.7 7.8 0.00 0.11 0.11 98 1005.0
20260507014549 59 268 0.9 3.5 0.00 0.11 0.11 98 1004.8
20260507014044 59 216 2.6 5.2 0.00 0.11 0.11 98 1004.8
20260507013542 59 232 4.3 7.8 0.00 0.11 0.11 98 1004.9
20260507013039 59 243 4.3 5.2 0.00 0.11 0.11 98 1005.0
20260507012536 59 105 1.7 2.6 0.00 0.11 0.11 98 1004.9
20260507012032 59 198 1.7 4.3 0.00 0.11 0.11 98 1005.0
20260507011530 59 214 3.5 5.2 0.00 0.11 0.11 99 1005.1
20260507011025 59 169 3.5 4.3 0.00 0.11 0.11 99 1005.1
20260507010520 59 209 1.7 3.5 0.00 0.11 0.11 98 1005.2
20260507010017 59 127 1.7 5.2 0.00 0.11 0.11 98 1005.2
20260507005515 59 170 0.9 4.3 0.00 0.11 0.11 98 1005.0
20260507005011 59 265 1.7 7.0 0.00 0.11 0.11 98 1005.2
20260507004508 59 193 4.3 6.1 0.00 0.11 0.11 98 1005.2
20260507004005 59 211 1.7 6.1 0.00 0.11 0.11 98 1005.1
20260507003500 59 164 1.7 4.3 0.00 0.11 0.11 98 1005.3
20260507002955 59 194 1.7 5.2 0.00 0.11 0.11 98 1005.0
20260507002452 59 154 0.9 7.8 0.00 0.11 0.11 98 1005.2
20260507001949 59 242 0.0 7.8 0.00 0.11 0.11 99 1005.1
20260507001446 59 215 4.3 4.3 0.00 0.11 0.11 99 1005.0
20260507000943 59 220 1.7 4.3 0.00 0.11 0.11 99 1005.0
20260507000439 59 176 1.7 7.0 0.00 0.11 0.11 99 1005.0
20260506235935 59 249 2.6 5.2 0.00 0.11 0.11 99 1004.6
20260506235433 59 206 1.7 4.3 0.00 0.11 0.11 99 1004.7
20260506234932 59 235 5.2 6.1 0.00 0.11 0.11 99 1004.6
20260506234431 59 152 1.7 3.5 0.00 0.11 0.11 99 1004.7
20260506233928 59 233 2.6 6.1 0.00 0.11 0.11 99 1004.9
20260506233425 59 266 2.6 7.8 0.00 0.11 0.11 99 1004.9
20260506232921 59 198 4.3 9.6 0.00 0.11 0.11 99 1004.8
20260506232418 59 135 0.0 3.5 0.02 0.11 0.11 99 1004.7
20260506231913 59 193 0.0 2.6 0.05 0.11 0.11 99 1004.9
20260506231411 59 237 2.6 5.2 0.05 0.10 0.10 99 1004.8
20260506230908 59 182 2.6 5.2 0.12 0.10 0.10 99 1004.9
20260506230405 59 183 1.7 2.6 0.14 0.09 0.09 99 1004.9
20260506225901 59 107 0.0 4.3 0.05 0.08 0.08 99 1004.9
20260506225359 59 119 0.0 4.3 0.02 0.07 0.07 99 1004.8
20260506224855 59 200 0.9 3.5 0.00 0.07 0.07 99 1005.0
20260506224353 59 171 0.9 5.2 0.00 0.07 0.07 98 1004.8
20260506223849 59 164 0.9 5.2 0.00 0.07 0.07 98 1005.0
20260506223344 59 211 2.6 7.0 0.00 0.07 0.07 98 1005.0
20260506222842 59 224 6.1 7.0 0.00 0.07 0.07 98 1004.9
20260506222337 59 143 0.0 5.2 0.00 0.07 0.07 97 1004.9
20260506221835 60 222 2.6 5.2 0.00 0.07 0.07 97 1004.8
20260506221332 60 220 1.7 4.3 0.00 0.07 0.07 97 1005.0
20260506220830 60 233 0.9 4.3 0.00 0.07 0.07 97 1005.3
20260506220325 60 225 7.0 9.6 0.02 0.07 0.07 97 1005.4
20260506215822 60 194 1.7 6.1 0.02 0.07 0.07 97 1005.2
20260506215318 60 266 2.6 4.3 0.00 0.06 0.06 96 1005.2
20260506214814 60 131 1.7 10.4 0.00 0.06 0.06 96 1005.2
20260506214311 60 98 0.9 2.6 0.00 0.06 0.06 96 1005.3
20260506213809 60 155 1.7 2.6 0.00 0.06 0.06 95 1005.6
20260506213306 60 256 0.0 3.5 0.00 0.06 0.06 95 1005.5
20260506212804 60 89 3.5 4.3 0.00 0.06 0.06 95 1005.5
20260506212259 60 206 3.5 7.8 0.00 0.06 0.06 95 1005.6
20260506211754 60 234 1.7 5.2 0.00 0.06 0.06 96 1005.5
20260506211251 60 201 3.5 7.0 0.00 0.06 0.06 96 1005.6
20260506210748 60 205 1.7 3.5 0.00 0.06 0.06 96 1005.7
20260506210245 60 258 3.5 6.1 0.00 0.06 0.06 96 1005.5
20260506205742 60 200 1.7 5.2 0.00 0.06 0.06 96 1005.5
20260506205237 60 193 2.6 4.3 0.02 0.06 0.06 95 1005.9
20260506204734 60 186 0.9 4.3 0.02 0.06 0.06 95 1005.9
20260506204232 60 196 4.3 7.0 0.00 0.06 0.06 95 1005.6
20260506203730 60 84 1.7 7.0 0.00 0.06 0.06 95 1005.8
20260506203227 60 25 2.6 5.2 0.00 0.06 0.06 95 1005.8
20260506202725 60 242 2.6 7.8 0.02 0.06 0.06 95 1005.8
20260506202221 60 204 6.1 8.7 0.02 0.06 0.06 95 1005.9
20260506201718 60 140 1.7 6.1 0.00 0.06 0.06 96 1005.8
20260506201214 60 204 1.7 8.7 0.02 0.06 0.06 96 1005.9
20260506200711 60 242 3.5 4.3 0.00 0.05 0.05 96 1005.9
20260506200208 60 196 1.7 7.8 0.02 0.05 0.05 95 1005.8
20260506195704 60 246 5.2 8.7 0.02 0.05 0.05 95 1005.9
20260506195201 60 217 0.0 7.0 0.00 0.05 0.05 95 1005.7
20260506194658 60 252 5.2 9.6 0.02 0.05 0.05 94 1005.8
20260506194154 61 62 1.7 5.2 0.05 0.05 0.05 95 1006.0
20260506193652 61 259 4.3 6.1 0.07 0.04 0.04 93 1006.0
20260506193149 62 2 1.7 8.7 0.05 0.04 0.04 93 1005.9
20260506192646 62 137 0.9 7.0 0.05 0.03 0.03 92 1005.9
20260506192142 62 215 4.3 6.1 0.05 0.03 0.03 90 1005.9
20260506191639 63 259 0.9 3.5 0.05 0.02 0.02 90 1005.9
20260506191135 63 230 2.6 6.1 0.05 0.02 0.02 88 1005.9
20260506190632 64 228 2.6 4.3 0.02 0.02 0.02 87 1005.9
20260506190129 64 230 0.0 1.7 0.02 0.01 0.01 86 1005.9
20260506185626 64 288 0.0 5.2 0.05 0.01 0.01 85 1006.1
20260506185122 65 232 4.3 6.1 0.05 0.01 0.01 82 1006.1
20260506184620 66 242 10.4 12.2 0.02 0.00 0.00 78 1006.1
20260506184117 67 89 2.6 7.8 0.00 0.00 0.00 76 1006.3
20260506183614 67 241 3.5 5.2 0.00 0.00 0.00 75 1006.4
20260506183109 67 205 6.1 7.8 0.00 0.00 0.00 74 1006.3
20260506182608 67 190 1.7 11.3 0.00 0.00 0.00 73 1006.3
20260506182104 68 181 4.3 12.2 0.00 0.00 0.00 72 1006.2
20260506181602 69 226 5.2 11.3 0.00 0.00 0.00 68 1006.3
20260506181059 69 282 7.8 13.0 0.00 0.00 0.00 67 1006.4
20260506180555 71 278 2.6 3.5 0.00 0.00 0.00 62 1006.0
20260506180052 71 274 3.5 4.3 0.00 0.00 0.00 62 1006.1
20260506175548 71 206 4.3 13.0 0.00 0.00 0.00 61 1006.3
20260506175045 71 290 2.6 4.3 0.00 0.00 0.00 60 1006.2
20260506174544 71 205 1.7 11.3 0.00 0.00 0.00 60 1006.2
20260506174039 71 180 5.2 17.4 0.00 0.00 0.00 60 1006.4
20260506173537 72 258 2.6 11.3 0.00 0.00 0.00 60 1006.2
20260506173034 72 255 7.8 13.0 0.00 0.00 0.00 59 1006.2
20260506172531 72 176 4.3 8.7 0.00 0.00 0.00 59 1006.1
20260506172027 72 217 7.8 13.0 0.00 0.00 0.00 58 1006.5
20260506171525 73 237 2.6 8.7 0.00 0.00 0.00 59 1006.5
20260506171022 73 250 3.5 11.3 0.00 0.00 0.00 59 1006.4
20260506170520 73 294 3.5 13.0 0.00 0.00 0.00 58 1006.3
20260506170012 73 201 7.0 11.3 0.00 0.00 0.00 57 1006.3
20260506165510 73 217 2.6 8.7 0.00 0.00 0.00 57 1006.4
20260506165006 73 213 3.5 4.3 0.00 0.00 0.00 59 1006.6
20260506164503 72 226 4.3 14.8 0.00 0.00 0.00 59 1006.4
20260506164001 72 209 3.5 9.6 0.00 0.00 0.00 60 1006.7
20260506163456 72 252 7.0 7.8 0.00 0.00 0.00 61 1006.8
20260506162950 71 244 6.1 10.4 0.00 0.00 0.00 61 1006.9
20260506162448 71 251 4.3 4.3 0.00 0.00 0.00 62 1006.7
20260506161945 71 266 1.7 4.3 0.00 0.00 0.00 63 1007.0
20260506161443 71 220 3.5 7.0 0.00 0.00 0.00 62 1007.1
20260506160940 71 257 2.6 5.2 0.00 0.00 0.00 63 1007.2
20260506160437 71 221 3.5 9.6 0.00 0.00 0.00 63 1007.3
20260506155934 71 229 2.6 7.0 0.00 0.00 0.00 63 1007.4
20260506155432 70 254 7.0 7.8 0.00 0.00 0.00 63 1007.5
20260506153554 70 202 3.5 11.3 0.00 0.00 0.00 64 1007.8
20260506153052 71 201 3.5 12.2 0.00 0.00 0.00 63 1007.9
20260506152548 71 165 1.7 7.0 0.00 0.00 0.00 63 1007.9
20260506152046 71 198 7.0 8.7 0.00 0.00 0.00 62 1007.9